Location: Kelshall
(52.0000°N, 0.0500°W)
Time: 22:49:37
(UTC+00:00)

MOS 1-B Rocket - Pass Details

Date: 18 September 2020
Orbit: 891 x 1605 km, 99.0° (Epoch: 30 October)

Event Time Altitude Azimuth Distance (km) Brightness Sun altitude
Rises 22:10:54 0° 16° (NNE) 3,832 7.7 -32.3°
Reaches altitude 10° 22:13:16 10° 19° (NNE) 2,954 6.9 -32.5°
Enters shadow 22:19:10 67° 57° (ENE) 1,305 4.5 -33.0°
